GFSNW_prec_precacc12_192.txt.gz
Total_Precipitation_Accumulation
0.42 0.34 0.27 0.19 0.12 0.07 0.03 0.04 0.07 0.05 0.04 0.13 0.22 0.08 0.00 0.05 0.05 0.08 0.08 0.04 0.04 0.04 0.02 0.01 0.00 0.00 0.00 0.00 0.00 0.00 0.00 0.04 0.05 0.00 0.00 0.00 0.00 0.00 0.00 0.02 0.10 0.07 0.12 0.13
0.26 0.19 0.13 0.09 0.05 0.03 0.02 0.05 0.04 0.10 0.18 0.16 0.10 0.07 0.07 0.09 0.06 0.06 0.10 0.06 0.03 0.02 0.00 0.03 0.00 0.00 0.00 0.00 0.00 0.01 0.03 0.07 0.15 0.06 0.00 0.00 0.00 0.00 0.00 0.01 0.08 0.23 0.27 0.13
0.14 0.08 0.06 0.04 0.03 0.03 0.02 0.03 0.03 0.09 0.22 0.13 0.10 0.10 0.08 0.06 0.02 0.02 0.03 0.01 0.01 0.01 0.01 0.01 0.04 0.00 0.00 0.00 0.00 0.00 0.09 0.13 0.16 0.14 0.03 0.02 0.01 0.00 0.00 0.01 0.23 0.24 0.18 0.06
0.10 0.07 0.04 0.02 0.01 0.00 0.00 0.00 0.01 0.01 0.07 0.06 0.06 0.06 0.04 0.01 0.01 0.00 0.00 0.01 0.02 0.06 0.18 0.11 0.04 0.03 0.03 0.01 0.00 0.00 0.06 0.18 0.07 0.03 0.02 0.01 0.00 0.00 0.00 0.01 0.03 0.20 0.14 0.05
0.06 0.03 0.01 0.00 0.00 0.00 0.00 0.00 0.00 0.00 0.00 0.00 0.01 0.02 0.03 0.02 0.01 0.00 0.00 0.02 0.02 0.04 0.10 0.11 0.15 0.12 0.15 0.14 0.02 0.02 0.06 0.11 0.07 0.09 0.02 0.03 0.06 0.03 0.01 0.02 0.01 0.01 0.02 0.03
0.01 0.00 0.00 0.00 0.00 0.00 0.00 0.00 0.00 0.01 0.00 0.00 0.00 0.00 0.00 0.00 0.01 0.02 0.03 0.03 0.06 0.04 0.03 0.08 0.12 0.14 0.11 0.11 0.07 0.05 0.09 0.19 0.28 0.28 0.07 0.18 0.26 0.05 0.03 0.02 0.01 0.02 0.01 0.00
0.00 0.00 0.00 0.00 0.00 0.00 0.00 0.00 0.01 0.03 0.01 0.00 0.00 0.00 0.00 0.00 0.00 0.01 0.01 0.01 0.05 0.04 0.05 0.05 0.01 0.00 0.00 0.00 0.00 0.01 0.03 0.06 0.25 0.25 0.15 0.32 0.07 0.01 0.03 0.02 0.00 0.05 0.01 0.01
0.00 0.00 0.00 0.00 0.00 0.00 0.00 0.00 0.01 0.02 0.01 0.00 0.00 0.00 0.00 0.00 0.00 0.00 0.00 0.01 0.03 0.03 0.07 0.08 0.06 0.01 0.03 0.02 0.02 0.04 0.04 0.14 0.34 0.24 0.15 0.05 0.00 0.01 0.02 0.02 0.01 0.02 0.02 0.03
0.00 0.00 0.00 0.00 0.00 0.00 0.00 0.00 0.00 0.03 0.02 0.00 0.00 0.00 0.00 0.01 0.02 0.02 0.02 0.00 0.02 0.07 0.07 0.09 0.10 0.06 0.05 0.05 0.06 0.12 0.15 0.30 0.52 0.30 0.24 0.07 0.00 0.03 0.03 0.05 0.04 0.04 0.03 0.03
0.00 0.00 0.00 0.00 0.00 0.00 0.00 0.00 0.00 0.01 0.02 0.00 0.00 0.00 0.01 0.02 0.05 0.05 0.01 0.02 0.01 0.04 0.13 0.19 0.12 0.12 0.16 0.14 0.04 0.01 0.05 0.18 0.52 0.53 0.59 0.18 0.03 0.05 0.09 0.14 0.09 0.13 0.16 0.14
0.01 0.00 0.01 0.01 0.00 0.00 0.00 0.00 0.00 0.02 0.04 0.00 0.00 0.00 0.00 0.01 0.03 0.08 0.07 0.03 0.05 0.13 0.31 0.22 0.30 0.19 0.07 0.05 0.01 0.01 0.02 0.11 0.13 0.22 0.36 0.34 0.19 0.25 0.28 0.31 0.28 0.20 0.11 0.03
0.02 0.01 0.01 0.02 0.01 0.00 0.01 0.00 0.00 0.02 0.05 0.01 0.00 0.00 0.00 0.00 0.00 0.01 0.02 0.03 0.02 0.06 0.09 0.20 0.19 0.08 0.03 0.06 0.08 0.05 0.14 0.26 0.23 0.19 0.18 0.21 0.26 0.30 0.16 0.09 0.04 0.01 0.02 0.01
0.02 0.02 0.01 0.02 0.02 0.00 0.01 0.01 0.01 0.03 0.02 0.01 0.00 0.00 0.00 0.00 0.00 0.00 0.00 0.00 0.01 0.02 0.10 0.10 0.08 0.08 0.03 0.02 0.04 0.08 0.07 0.07 0.20 0.33 0.19 0.44 0.41 0.17 0.08 0.03 0.00 0.00 0.00 0.00
0.04 0.03 0.04 0.04 0.07 0.05 0.02 0.02 0.02 0.04 0.04 0.03 0.00 0.00 0.00 0.00 0.00 0.00 0.00 0.00 0.00 0.01 0.02 0.07 0.09 0.04 0.00 0.01 0.06 0.05 0.12 0.32 0.32 0.58 0.33 0.24 0.07 0.02 0.01 0.00 0.00 0.00 0.00 0.00
0.08 0.06 0.06 0.07 0.10 0.12 0.05 0.02 0.01 0.03 0.05 0.04 0.00 0.00 0.00 0.00 0.00 0.00 0.00 0.00 0.01 0.02 0.04 0.09 0.04 0.00 0.01 0.00 0.01 0.01 0.04 0.22 0.51 0.36 0.08 0.10 0.02 0.00 0.00 0.00 0.00 0.00 0.00 0.00
0.18 0.13 0.09 0.06 0.09 0.12 0.04 0.00 0.01 0.02 0.09 0.31 0.12 0.00 0.00 0.00 0.00 0.00 0.00 0.01 0.01 0.06 0.09 0.06 0.02 0.01 0.07 0.12 0.04 0.02 0.02 0.01 0.04 0.18 0.08 0.02 0.01 0.00 0.00 0.00 0.00 0.00 0.00 0.00
0.27 0.15 0.12 0.06 0.08 0.04 0.00 0.01 0.03 0.06 0.09 0.25 0.10 0.00 0.01 0.01 0.00 0.00 0.01 0.03 0.04 0.06 0.08 0.05 0.01 0.02 0.21 0.23 0.03 0.02 0.02 0.05 0.09 0.10 0.08 0.02 0.00 0.00 0.00 0.00 0.00 0.00 0.00 0.00
0.16 0.10 0.10 0.09 0.14 0.06 0.01 0.00 0.03 0.03 0.06 0.10 0.04 0.00 0.00 0.01 0.05 0.14 0.09 0.03 0.05 0.06 0.06 0.04 0.02 0.04 0.10 0.08 0.00 0.01 0.03 0.06 0.03 0.04 0.01 0.00 0.00 0.00 0.00 0.00 0.00 0.00 0.00 0.00
0.02 0.04 0.06 0.06 0.02 0.00 0.00 0.00 0.01 0.03 0.03 0.04 0.04 0.01 0.00 0.01 0.05 0.12 0.17 0.22 0.21 0.06 0.04 0.01 0.06 0.11 0.14 0.03 0.02 0.01 0.02 0.04 0.03 0.00 0.00 0.00 0.00 0.00 0.01 0.00 0.00 0.00 0.00 0.00
0.02 0.02 0.01 0.00 0.00 0.00 0.00 0.00 0.02 0.07 0.10 0.12 0.03 0.00 0.00 0.03 0.07 0.17 0.40 0.47 0.49 0.33 0.12 0.10 0.10 0.07 0.14 0.13 0.19 0.17 0.13 0.07 0.01 0.01 0.05 0.07 0.01 0.02 0.02 0.02 0.02 0.02 0.02 0.02
0.00 0.00 0.01 0.08 0.05 0.02 0.05 0.10 0.07 0.05 0.06 0.04 0.02 0.03 0.10 0.07 0.11 0.14 0.19 0.24 0.30 0.45 0.53 0.26 0.19 0.58 0.85 0.19 0.11 0.05 0.01 0.00 0.01 0.03 0.09 0.10 0.06 0.04 0.05 0.03 0.01 0.01 0.00 0.00
0.01 0.03 0.04 0.07 0.06 0.07 0.09 0.04 0.02 0.03 0.02 0.00 0.01 0.03 0.19 0.12 0.08 0.26 0.21 0.09 0.03 0.04 0.14 0.26 0.25 0.23 0.10 0.01 0.00 0.00 0.01 0.03 0.00 0.00 0.00 0.02 0.02 0.01 0.02 0.01 0.00 0.00 0.00 0.00
0.03 0.03 0.05 0.02 0.02 0.05 0.06 0.04 0.05 0.10 0.11 0.16 0.22 0.22 0.24 0.32 0.24 0.13 0.09 0.03 0.00 0.00 0.01 0.03 0.12 0.08 0.01 0.00 0.00 0.00 0.00 0.00 0.00 0.00 0.00 0.00 0.00 0.00 0.00 0.00 0.00 0.00 0.00 0.00
0.05 0.06 0.03 0.04 0.11 0.10 0.17 0.08 0.07 0.24 0.21 0.11 0.09 0.07 0.06 0.06 0.07 0.04 0.02 0.00 0.00 0.00 0.02 0.35 0.37 0.03 0.00 0.00 0.00 0.00 0.00 0.00 0.00 0.00 0.00 0.00 0.00 0.01 0.02 0.01 0.01 0.01 0.00 0.00
0.06 0.08 0.07 0.09 0.10 0.09 0.13 0.05 0.05 0.03 0.04 0.04 0.02 0.02 0.05 0.05 0.04 0.00 0.00 0.00 0.01 0.04 0.27 0.38 0.09 0.00 0.00 0.00 0.00 0.00 0.00 0.00 0.00 0.00 0.00 0.00 0.00 0.00 0.01 0.02 0.04 0.01 0.00 0.00
0.01 0.01 0.01 0.01 0.01 0.01 0.01 0.00 0.01 0.03 0.02 0.01 0.03 0.06 0.04 0.01 0.00 0.00 0.00 0.00 0.08 0.22 0.22 0.08 0.02 0.00 0.00 0.01 0.02 0.01 0.00 0.00 0.00 0.00 0.00 0.00 0.00 0.00 0.00 0.00 0.03 0.00 0.00 0.00
0.01 0.00 0.00 0.00 0.00 0.00 0.00 0.00 0.01 0.01 0.01 0.02 0.03 0.07 0.07 0.09 0.10 0.12 0.22 0.44 0.54 0.29 0.10 0.05 0.01 0.01 0.02 0.04 0.02 0.00 0.00 0.00 0.00 0.00 0.00 0.00 0.00 0.00 0.00 0.00 0.00 0.00 0.00 0.00

GFSNW_prec_precacc12_195.txt.gz
Total_Precipitation_Accumulation
0.49 0.42 0.37 0.33 0.30 0.24 0.17 0.13 0.17 0.11 0.07 0.16 0.26 0.08 0.00 0.05 0.05 0.08 0.09 0.07 0.06 0.06 0.03 0.01 0.00 0.00 0.01 0.00 0.00 0.00 0.01 0.07 0.06 0.00 0.00 0.00 0.00 0.00 0.00 0.04 0.06 0.07 0.16 0.15
0.48 0.43 0.33 0.30 0.27 0.20 0.11 0.17 0.18 0.24 0.24 0.20 0.12 0.08 0.09 0.11 0.08 0.08 0.13 0.09 0.06 0.05 0.02 0.03 0.00 0.00 0.00 0.00 0.00 0.01 0.03 0.08 0.16 0.05 0.00 0.00 0.00 0.00 0.00 0.01 0.07 0.20 0.29 0.15
0.28 0.27 0.24 0.22 0.19 0.15 0.11 0.17 0.21 0.25 0.31 0.17 0.11 0.14 0.14 0.10 0.05 0.04 0.04 0.02 0.01 0.01 0.00 0.01 0.03 0.00 0.00 0.00 0.00 0.00 0.09 0.13 0.18 0.14 0.03 0.02 0.01 0.00 0.00 0.01 0.20 0.20 0.15 0.05
0.18 0.15 0.13 0.12 0.10 0.07 0.07 0.11 0.10 0.07 0.18 0.11 0.09 0.10 0.07 0.02 0.02 0.01 0.00 0.00 0.01 0.03 0.09 0.03 0.01 0.01 0.01 0.00 0.00 0.00 0.05 0.13 0.07 0.03 0.02 0.01 0.00 0.00 0.00 0.01 0.02 0.17 0.12 0.05
0.18 0.14 0.09 0.07 0.04 0.03 0.02 0.02 0.02 0.03 0.04 0.05 0.08 0.07 0.03 0.02 0.01 0.00 0.00 0.00 0.00 0.01 0.03 0.05 0.08 0.05 0.04 0.03 0.00 0.01 0.04 0.08 0.06 0.08 0.02 0.03 0.06 0.03 0.01 0.02 0.01 0.01 0.01 0.03
0.10 0.07 0.04 0.03 0.02 0.01 0.00 0.00 0.00 0.00 0.01 0.00 0.01 0.02 0.01 0.00 0.00 0.00 0.00 0.00 0.00 0.01 0.01 0.02 0.04 0.07 0.06 0.05 0.02 0.03 0.06 0.10 0.16 0.19 0.06 0.16 0.24 0.05 0.03 0.02 0.01 0.03 0.02 0.01
0.02 0.01 0.01 0.01 0.00 0.00 0.00 0.00 0.00 0.00 0.00 0.00 0.00 0.00 0.00 0.00 0.00 0.00 0.00 0.00 0.01 0.00 0.02 0.01 0.00 0.00 0.00 0.00 0.00 0.00 0.03 0.06 0.22 0.20 0.12 0.22 0.04 0.01 0.07 0.05 0.01 0.06 0.01 0.01
0.00 0.00 0.00 0.00 0.00 0.00 0.00 0.00 0.00 0.00 0.00 0.00 0.00 0.00 0.00 0.00 0.00 0.00 0.00 0.00 0.02 0.01 0.02 0.03 0.03 0.01 0.01 0.02 0.02 0.04 0.04 0.14 0.36 0.23 0.14 0.04 0.00 0.06 0.14 0.10 0.05 0.03 0.04 0.05
0.00 0.00 0.00 0.00 0.00 0.00 0.00 0.00 0.00 0.00 0.00 0.00 0.00 0.00 0.00 0.00 0.00 0.00 0.00 0.00 0.00 0.01 0.02 0.02 0.04 0.01 0.02 0.02 0.04 0.09 0.12 0.29 0.51 0.29 0.27 0.08 0.01 0.03 0.04 0.07 0.07 0.10 0.26 0.11
0.00 0.00 0.00 0.00 0.00 0.00 0.00 0.00 0.00 0.00 0.00 0.00 0.00 0.00 0.00 0.00 0.00 0.00 0.00 0.00 0.00 0.02 0.08 0.11 0.06 0.11 0.15 0.13 0.03 0.00 0.01 0.08 0.31 0.39 0.55 0.17 0.03 0.05 0.13 0.30 0.33 0.44 0.30 0.21
0.01 0.00 0.01 0.01 0.00 0.00 0.00 0.00 0.00 0.00 0.00 0.00 0.00 0.00 0.00 0.00 0.00 0.00 0.00 0.01 0.03 0.03 0.08 0.10 0.19 0.12 0.03 0.02 0.00 0.00 0.00 0.06 0.06 0.07 0.17 0.18 0.14 0.21 0.36 0.46 0.42 0.22 0.10 0.03
0.03 0.01 0.01 0.02 0.01 0.00 0.00 0.00 0.00 0.00 0.00 0.00 0.00 0.00 0.00 0.00 0.00 0.00 0.00 0.01 0.00 0.00 0.01 0.05 0.10 0.07 0.01 0.01 0.01 0.00 0.08 0.20 0.19 0.16 0.15 0.18 0.25 0.46 0.29 0.32 0.25 0.03 0.01 0.01
0.03 0.02 0.01 0.01 0.02 0.00 0.00 0.00 0.00 0.00 0.00 0.00 0.00 0.00 0.00 0.00 0.00 0.00 0.00 0.00 0.00 0.01 0.04 0.03 0.05 0.04 0.01 0.01 0.00 0.01 0.02 0.03 0.08 0.20 0.13 0.43 0.42 0.19 0.15 0.16 0.06 0.00 0.00 0.00
0.05 0.05 0.05 0.05 0.08 0.06 0.01 0.00 0.00 0.00 0.00 0.01 0.00 0.00 0.00 0.00 0.00 0.00 0.00 0.00 0.00 0.01 0.01 0.06 0.08 0.04 0.00 0.00 0.00 0.00 0.00 0.06 0.18 0.49 0.33 0.27 0.07 0.02 0.01 0.00 0.00 0.00 0.00 0.00
0.07 0.07 0.07 0.07 0.12 0.13 0.04 0.01 0.00 0.00 0.00 0.00 0.00 0.00 0.00 0.00 0.00 0.00 0.00 0.00 0.00 0.01 0.03 0.09 0.05 0.00 0.01 0.00 0.00 0.00 0.02 0.18 0.46 0.40 0.14 0.23 0.04 0.00 0.00 0.01 0.02 0.00 0.00 0.00
0.17 0.14 0.09 0.06 0.09 0.10 0.02 0.00 0.00 0.00 0.03 0.19 0.07 0.00 0.00 0.00 0.00 0.00 0.00 0.00 0.00 0.02 0.06 0.05 0.02 0.01 0.06 0.10 0.02 0.01 0.02 0.01 0.06 0.23 0.12 0.10 0.06 0.00 0.00 0.02 0.01 0.00 0.00 0.00
0.27 0.14 0.10 0.05 0.07 0.02 0.00 0.00 0.00 0.02 0.04 0.10 0.03 0.00 0.00 0.00 0.00 0.00 0.00 0.00 0.00 0.03 0.07 0.04 0.00 0.01 0.13 0.15 0.02 0.02 0.03 0.05 0.11 0.15 0.23 0.11 0.01 0.00 0.00 0.00 0.00 0.00 0.00 0.00
0.17 0.09 0.09 0.08 0.11 0.03 0.00 0.00 0.03 0.01 0.01 0.02 0.02 0.00 0.00 0.00 0.00 0.04 0.07 0.04 0.05 0.07 0.06 0.03 0.02 0.02 0.07 0.05 0.00 0.01 0.03 0.07 0.05 0.06 0.06 0.02 0.00 0.00 0.00 0.00 0.00 0.00 0.00 0.00
0.03 0.04 0.05 0.04 0.01 0.00 0.00 0.00 0.01 0.00 0.01 0.02 0.02 0.01 0.00 0.00 0.01 0.05 0.10 0.22 0.22 0.07 0.05 0.01 0.02 0.02 0.05 0.00 0.00 0.02 0.07 0.09 0.05 0.00 0.00 0.00 0.00 0.00 0.01 0.00 0.00 0.00 0.00 0.00
0.01 0.00 0.00 0.00 0.00 0.00 0.00 0.00 0.00 0.05 0.09 0.10 0.03 0.01 0.02 0.04 0.09 0.12 0.12 0.24 0.26 0.27 0.12 0.08 0.08 0.06 0.14 0.12 0.18 0.23 0.18 0.09 0.02 0.01 0.02 0.04 0.01 0.01 0.01 0.02 0.03 0.05 0.04 0.02
0.00 0.00 0.00 0.00 0.02 0.01 0.01 0.07 0.06 0.04 0.06 0.04 0.02 0.04 0.14 0.10 0.16 0.13 0.07 0.18 0.28 0.47 0.61 0.31 0.26 0.63 0.89 0.18 0.10 0.06 0.01 0.00 0.00 0.01 0.01 0.02 0.02 0.02 0.02 0.01 0.01 0.01 0.01 0.00
0.00 0.00 0.01 0.04 0.06 0.05 0.08 0.03 0.02 0.02 0.01 0.00 0.01 0.03 0.21 0.14 0.11 0.15 0.12 0.10 0.05 0.05 0.14 0.28 0.35 0.23 0.04 0.00 0.00 0.00 0.00 0.00 0.00 0.00 0.00 0.00 0.00 0.00 0.00 0.00 0.00 0.00 0.00 0.01
0.00 0.01 0.04 0.02 0.02 0.05 0.04 0.02 0.02 0.04 0.04 0.08 0.18 0.18 0.21 0.30 0.25 0.12 0.10 0.05 0.01 0.00 0.02 0.05 0.13 0.10 0.02 0.00 0.00 0.00 0.00 0.00 0.00 0.00 0.00 0.00 0.00 0.00 0.00 0.00 0.00 0.00 0.00 0.00
0.01 0.05 0.02 0.01 0.02 0.02 0.08 0.02 0.01 0.05 0.11 0.09 0.09 0.06 0.05 0.07 0.09 0.04 0.04 0.00 0.00 0.01 0.02 0.28 0.25 0.03 0.01 0.00 0.00 0.00 0.00 0.00 0.00 0.00 0.00 0.00 0.00 0.00 0.00 0.00 0.01 0.01 0.01 0.00
0.03 0.06 0.02 0.01 0.01 0.01 0.05 0.04 0.04 0.01 0.04 0.04 0.02 0.02 0.05 0.06 0.08 0.03 0.01 0.00 0.00 0.04 0.20 0.26 0.06 0.01 0.00 0.00 0.01 0.00 0.00 0.00 0.00 0.00 0.00 0.00 0.00 0.00 0.00 0.00 0.01 0.01 0.00 0.00
0.01 0.01 0.00 0.00 0.00 0.00 0.00 0.00 0.00 0.00 0.00 0.00 0.02 0.05 0.05 0.02 0.01 0.01 0.00 0.00 0.06 0.15 0.10 0.07 0.04 0.01 0.00 0.01 0.02 0.02 0.01 0.00 0.00 0.00 0.00 0.00 0.00 0.00 0.00 0.00 0.00 0.00 0.00 0.00
0.01 0.00 0.00 0.00 0.00 0.00 0.00 0.00 0.00 0.00 0.01 0.01 0.02 0.04 0.04 0.07 0.08 0.10 0.21 0.33 0.35 0.25 0.16 0.08 0.01 0.01 0.02 0.04 0.02 0.01 0.00 0.00 0.00 0.00 0.00 0.00 0.00 0.00 0.00 0.00 0.00 0.00 0.00 0.00

GFSNW_prec_precacc12_198.txt.gz
Total_Precipitation_Accumulation
0.64 0.61 0.56 0.57 0.57 0.57 0.55 0.46 0.46 0.27 0.13 0.24 0.35 0.13 0.02 0.07 0.07 0.09 0.09 0.07 0.07 0.07 0.03 0.01 0.00 0.00 0.01 0.00 0.00 0.01 0.02 0.08 0.06 0.00 0.00 0.00 0.00 0.00 0.02 0.09 0.08 0.11 0.18 0.13
0.56 0.56 0.52 0.54 0.50 0.47 0.42 0.55 0.53 0.55 0.41 0.33 0.21 0.14 0.15 0.15 0.11 0.09 0.13 0.10 0.08 0.06 0.02 0.03 0.00 0.00 0.00 0.00 0.00 0.01 0.03 0.07 0.15 0.05 0.00 0.00 0.00 0.00 0.00 0.01 0.04 0.15 0.23 0.12
0.35 0.36 0.36 0.40 0.40 0.33 0.28 0.44 0.56 0.62 0.56 0.30 0.18 0.25 0.25 0.15 0.06 0.05 0.05 0.03 0.01 0.01 0.00 0.01 0.02 0.00 0.00 0.00 0.00 0.01 0.05 0.07 0.12 0.12 0.03 0.02 0.01 0.00 0.00 0.01 0.11 0.15 0.13 0.05
0.33 0.31 0.30 0.31 0.28 0.21 0.16 0.27 0.32 0.24 0.36 0.18 0.14 0.14 0.12 0.04 0.05 0.04 0.01 0.01 0.00 0.01 0.01 0.00 0.00 0.00 0.00 0.00 0.00 0.00 0.03 0.05 0.02 0.02 0.01 0.01 0.00 0.00 0.00 0.00 0.01 0.13 0.10 0.05
0.29 0.28 0.25 0.23 0.20 0.16 0.14 0.18 0.16 0.15 0.14 0.09 0.15 0.14 0.08 0.04 0.04 0.03 0.02 0.00 0.00 0.00 0.00 0.00 0.02 0.01 0.02 0.02 0.00 0.00 0.01 0.03 0.02 0.03 0.01 0.03 0.05 0.03 0.01 0.02 0.01 0.02 0.02 0.03
0.24 0.21 0.18 0.15 0.11 0.08 0.09 0.08 0.08 0.08 0.07 0.04 0.08 0.08 0.04 0.02 0.01 0.01 0.00 0.00 0.00 0.00 0.00 0.00 0.00 0.00 0.01 0.01 0.00 0.00 0.00 0.01 0.07 0.11 0.03 0.10 0.13 0.04 0.02 0.04 0.02 0.05 0.05 0.02
0.16 0.13 0.09 0.06 0.04 0.02 0.03 0.04 0.04 0.01 0.02 0.01 0.01 0.00 0.01 0.00 0.00 0.00 0.00 0.00 0.00 0.00 0.00 0.00 0.00 0.00 0.00 0.00 0.00 0.00 0.00 0.01 0.14 0.17 0.10 0.19 0.03 0.02 0.08 0.10 0.01 0.08 0.09 0.03
0.03 0.03 0.03 0.02 0.01 0.00 0.00 0.00 0.00 0.00 0.00 0.00 0.00 0.00 0.00 0.00 0.00 0.00 0.00 0.00 0.00 0.00 0.00 0.00 0.00 0.00 0.00 0.00 0.00 0.01 0.03 0.13 0.30 0.21 0.13 0.04 0.01 0.07 0.15 0.13 0.07 0.14 0.18 0.16
0.02 0.01 0.01 0.00 0.00 0.00 0.00 0.00 0.00 0.00 0.00 0.00 0.00 0.00 0.00 0.00 0.00 0.00 0.00 0.00 0.00 0.00 0.00 0.00 0.01 0.00 0.01 0.01 0.03 0.05 0.08 0.23 0.42 0.26 0.26 0.09 0.01 0.03 0.03 0.06 0.13 0.21 0.47 0.38
0.01 0.00 0.00 0.00 0.00 0.00 0.00 0.00 0.00 0.00 0.00 0.00 0.00 0.00 0.00 0.00 0.00 0.00 0.00 0.00 0.00 0.00 0.05 0.06 0.03 0.05 0.10 0.10 0.03 0.00 0.01 0.01 0.06 0.22 0.39 0.13 0.03 0.05 0.12 0.35 0.44 0.50 0.43 0.35
0.01 0.00 0.00 0.01 0.00 0.00 0.00 0.00 0.00 0.00 0.00 0.00 0.00 0.00 0.00 0.00 0.00 0.00 0.00 0.00 0.00 0.01 0.02 0.01 0.04 0.04 0.02 0.01 0.00 0.00 0.00 0.04 0.04 0.03 0.03 0.06 0.12 0.20 0.43 0.55 0.49 0.23 0.10 0.03
0.02 0.01 0.00 0.02 0.01 0.00 0.00 0.00 0.00 0.00 0.00 0.00 0.00 0.00 0.00 0.00 0.00 0.00 0.00 0.00 0.00 0.00 0.00 0.01 0.01 0.03 0.02 0.01 0.00 0.00 0.01 0.05 0.07 0.05 0.10 0.14 0.21 0.51 0.38 0.51 0.51 0.20 0.04 0.00
0.03 0.02 0.00 0.00 0.01 0.00 0.00 0.00 0.00 0.00 0.00 0.00 0.00 0.00 0.00 0.00 0.00 0.00 0.00 0.00 0.00 0.00 0.01 0.02 0.03 0.04 0.01 0.01 0.00 0.01 0.00 0.00 0.02 0.16 0.10 0.32 0.28 0.16 0.22 0.30 0.18 0.05 0.01 0.00
0.04 0.04 0.04 0.03 0.06 0.06 0.01 0.00 0.00 0.00 0.00 0.00 0.00 0.00 0.00 0.00 0.00 0.00 0.00 0.00 0.00 0.00 0.01 0.06 0.08 0.04 0.01 0.01 0.02 0.01 0.00 0.05 0.14 0.28 0.27 0.24 0.04 0.07 0.05 0.01 0.00 0.01 0.00 0.00
0.05 0.05 0.05 0.06 0.10 0.12 0.02 0.00 0.00 0.00 0.00 0.00 0.00 0.00 0.00 0.00 0.00 0.00 0.00 0.00 0.00 0.00 0.03 0.09 0.05 0.01 0.02 0.01 0.01 0.00 0.01 0.12 0.25 0.23 0.14 0.33 0.07 0.00 0.00 0.01 0.03 0.01 0.00 0.00
0.13 0.09 0.07 0.04 0.06 0.05 0.01 0.00 0.00 0.00 0.01 0.06 0.03 0.00 0.00 0.00 0.00 0.00 0.00 0.00 0.00 0.02 0.05 0.04 0.01 0.00 0.06 0.09 0.02 0.01 0.01 0.01 0.05 0.24 0.13 0.11 0.08 0.01 0.00 0.02 0.01 0.00 0.00 0.00
0.22 0.11 0.09 0.03 0.03 0.01 0.00 0.00 0.00 0.00 0.02 0.05 0.01 0.00 0.00 0.00 0.00 0.00 0.00 0.00 0.00 0.03 0.08 0.04 0.01 0.01 0.12 0.10 0.02 0.02 0.02 0.05 0.11 0.16 0.31 0.18 0.02 0.01 0.00 0.01 0.00 0.01 0.00 0.00
0.12 0.08 0.08 0.03 0.06 0.02 0.00 0.00 0.02 0.01 0.00 0.01 0.01 0.00 0.00 0.00 0.00 0.01 0.02 0.05 0.06 0.07 0.04 0.03 0.00 0.02 0.05 0.04 0.00 0.01 0.02 0.09 0.10 0.10 0.10 0.06 0.01 0.00 0.00 0.00 0.01 0.00 0.00 0.00
0.02 0.03 0.03 0.03 0.01 0.00 0.00 0.00 0.02 0.01 0.00 0.01 0.02 0.01 0.00 0.00 0.04 0.09 0.13 0.22 0.19 0.08 0.06 0.01 0.03 0.04 0.04 0.00 0.00 0.01 0.08 0.15 0.08 0.01 0.01 0.00 0.00 0.00 0.00 0.00 0.01 0.01 0.00 0.00
0.00 0.00 0.00 0.00 0.00 0.00 0.00 0.00 0.00 0.04 0.06 0.07 0.03 0.01 0.03 0.06 0.11 0.13 0.13 0.13 0.13 0.19 0.09 0.06 0.07 0.04 0.11 0.09 0.16 0.22 0.18 0.10 0.02 0.01 0.01 0.00 0.00 0.01 0.01 0.01 0.02 0.03 0.03 0.01
0.00 0.00 0.00 0.00 0.01 0.01 0.01 0.04 0.06 0.04 0.06 0.04 0.02 0.04 0.15 0.11 0.17 0.13 0.07 0.10 0.18 0.35 0.52 0.24 0.24 0.51 0.73 0.16 0.08 0.05 0.01 0.00 0.00 0.00 0.01 0.01 0.01 0.02 0.01 0.01 0.01 0.01 0.01 0.01
0.00 0.00 0.00 0.05 0.07 0.04 0.06 0.03 0.02 0.02 0.00 0.00 0.00 0.02 0.18 0.14 0.12 0.10 0.06 0.08 0.06 0.06 0.14 0.27 0.37 0.25 0.04 0.00 0.00 0.00 0.00 0.00 0.00 0.00 0.00 0.00 0.00 0.00 0.00 0.01 0.01 0.00 0.00 0.01
0.00 0.01 0.03 0.01 0.02 0.03 0.01 0.01 0.01 0.02 0.01 0.05 0.15 0.12 0.12 0.28 0.22 0.09 0.10 0.06 0.01 0.01 0.03 0.06 0.14 0.12 0.02 0.00 0.00 0.00 0.00 0.00 0.00 0.00 0.00 0.00 0.00 0.00 0.00 0.00 0.00 0.00 0.00 0.00
0.01 0.03 0.02 0.01 0.00 0.00 0.00 0.01 0.01 0.01 0.02 0.09 0.09 0.05 0.04 0.07 0.09 0.04 0.05 0.01 0.01 0.02 0.03 0.21 0.12 0.02 0.01 0.00 0.00 0.00 0.00 0.00 0.00 0.00 0.00 0.00 0.00 0.00 0.00 0.00 0.01 0.01 0.01 0.00
0.01 0.06 0.02 0.00 0.00 0.00 0.00 0.02 0.03 0.00 0.01 0.03 0.03 0.03 0.06 0.07 0.10 0.07 0.04 0.01 0.01 0.03 0.08 0.10 0.02 0.02 0.01 0.01 0.01 0.01 0.01 0.00 0.00 0.00 0.00 0.00 0.00 0.00 0.00 0.00 0.01 0.01 0.00 0.00
0.01 0.01 0.01 0.00 0.00 0.00 0.00 0.00 0.00 0.00 0.00 0.01 0.03 0.06 0.07 0.04 0.04 0.03 0.02 0.01 0.03 0.10 0.07 0.08 0.09 0.06 0.02 0.01 0.02 0.02 0.01 0.01 0.00 0.00 0.00 0.00 0.00 0.00 0.00 0.00 0.00 0.00 0.00 0.00
0.02 0.00 0.00 0.00 0.00 0.00 0.00 0.00 0.00 0.00 0.02 0.03 0.02 0.04 0.02 0.06 0.09 0.09 0.19 0.31 0.30 0.23 0.18 0.10 0.02 0.01 0.02 0.05 0.02 0.01 0.01 0.00 0.00 0.00 0.00 0.00 0.00 0.00 0.00 0.00 0.00 0.00 0.00 0.00

GFSNW_prec_precacc12_201.txt.gz
Total_Precipitation_Accumulation
0.56 0.59 0.62 0.74 1.01 1.16 1.08 0.97 0.91 0.55 0.20 0.33 0.47 0.19 0.04 0.08 0.10 0.11 0.13 0.09 0.07 0.07 0.03 0.01 0.00 0.01 0.02 0.00 0.00 0.01 0.02 0.07 0.04 0.00 0.00 0.00 0.00 0.01 0.02 0.12 0.10 0.14 0.21 0.13
0.54 0.57 0.61 0.73 0.78 0.70 0.75 0.94 0.86 0.76 0.47 0.43 0.34 0.23 0.23 0.24 0.22 0.15 0.15 0.11 0.08 0.06 0.02 0.03 0.01 0.01 0.00 0.00 0.00 0.00 0.01 0.04 0.06 0.02 0.00 0.00 0.00 0.00 0.00 0.01 0.03 0.10 0.18 0.10
0.45 0.45 0.51 0.63 0.73 0.74 0.60 0.73 0.82 0.86 0.67 0.35 0.20 0.32 0.40 0.26 0.12 0.09 0.06 0.04 0.02 0.02 0.01 0.01 0.02 0.02 0.01 0.00 0.00 0.01 0.04 0.04 0.05 0.05 0.01 0.01 0.01 0.00 0.00 0.00 0.03 0.06 0.07 0.04
0.47 0.45 0.51 0.57 0.54 0.47 0.39 0.51 0.53 0.38 0.53 0.27 0.22 0.25 0.26 0.09 0.08 0.07 0.03 0.03 0.01 0.01 0.02 0.00 0.00 0.00 0.01 0.00 0.00 0.00 0.01 0.02 0.02 0.01 0.01 0.01 0.00 0.00 0.00 0.00 0.00 0.03 0.03 0.04
0.43 0.45 0.46 0.43 0.39 0.35 0.31 0.37 0.33 0.33 0.31 0.20 0.31 0.26 0.15 0.08 0.09 0.06 0.05 0.01 0.00 0.00 0.00 0.00 0.00 0.00 0.00 0.00 0.00 0.00 0.00 0.01 0.01 0.01 0.00 0.00 0.00 0.00 0.00 0.01 0.01 0.03 0.06 0.06
0.36 0.32 0.31 0.30 0.27 0.22 0.23 0.20 0.26 0.30 0.24 0.11 0.15 0.15 0.08 0.06 0.04 0.03 0.01 0.00 0.00 0.00 0.00 0.00 0.00 0.00 0.00 0.00 0.00 0.00 0.00 0.01 0.04 0.06 0.00 0.01 0.01 0.00 0.01 0.04 0.02 0.09 0.11 0.06
0.36 0.33 0.30 0.28 0.22 0.19 0.19 0.21 0.20 0.15 0.13 0.07 0.07 0.03 0.04 0.02 0.01 0.00 0.00 0.00 0.00 0.00 0.00 0.00 0.00 0.00 0.00 0.00 0.00 0.00 0.00 0.01 0.08 0.08 0.03 0.06 0.01 0.02 0.09 0.11 0.02 0.07 0.11 0.06
0.11 0.09 0.09 0.08 0.06 0.06 0.05 0.04 0.02 0.01 0.02 0.01 0.00 0.00 0.00 0.00 0.00 0.00 0.00 0.00 0.00 0.00 0.00 0.00 0.00 0.00 0.00 0.00 0.00 0.00 0.01 0.06 0.16 0.13 0.09 0.03 0.01 0.09 0.16 0.13 0.07 0.18 0.28 0.17
0.07 0.06 0.04 0.02 0.02 0.01 0.00 0.00 0.00 0.00 0.00 0.00 0.00 0.00 0.00 0.00 0.00 0.00 0.00 0.00 0.00 0.00 0.00 0.00 0.00 0.00 0.00 0.01 0.00 0.01 0.03 0.11 0.23 0.14 0.23 0.09 0.01 0.04 0.03 0.05 0.18 0.29 0.52 0.47
0.04 0.02 0.01 0.00 0.00 0.00 0.00 0.00 0.00 0.00 0.00 0.00 0.00 0.00 0.00 0.00 0.00 0.00 0.00 0.00 0.00 0.00 0.00 0.01 0.01 0.01 0.02 0.01 0.00 0.00 0.01 0.04 0.08 0.10 0.16 0.04 0.03 0.06 0.12 0.34 0.48 0.51 0.46 0.45
0.01 0.00 0.00 0.00 0.00 0.00 0.00 0.00 0.00 0.00 0.00 0.00 0.00 0.00 0.00 0.00 0.00 0.00 0.00 0.00 0.00 0.01 0.01 0.01 0.01 0.01 0.01 0.02 0.00 0.00 0.00 0.01 0.01 0.03 0.03 0.04 0.08 0.17 0.41 0.53 0.50 0.27 0.21 0.11
0.02 0.00 0.00 0.01 0.00 0.00 0.00 0.00 0.00 0.00 0.00 0.00 0.00 0.00 0.00 0.00 0.00 0.00 0.00 0.00 0.00 0.00 0.00 0.02 0.02 0.02 0.01 0.01 0.01 0.00 0.00 0.01 0.04 0.06 0.04 0.05 0.16 0.47 0.35 0.54 0.61 0.27 0.14 0.03
0.02 0.01 0.00 0.00 0.00 0.00 0.00 0.00 0.00 0.00 0.00 0.00 0.00 0.00 0.00 0.00 0.00 0.00 0.00 0.00 0.00 0.00 0.00 0.02 0.03 0.04 0.01 0.02 0.01 0.02 0.00 0.00 0.01 0.06 0.03 0.16 0.21 0.13 0.25 0.40 0.29 0.10 0.04 0.02
0.03 0.04 0.03 0.02 0.02 0.02 0.00 0.00 0.00 0.00 0.00 0.00 0.00 0.00 0.00 0.00 0.00 0.00 0.00 0.00 0.00 0.00 0.00 0.03 0.05 0.04 0.02 0.03 0.04 0.03 0.01 0.01 0.03 0.08 0.07 0.12 0.04 0.13 0.14 0.05 0.01 0.02 0.01 0.00
0.03 0.04 0.03 0.02 0.05 0.05 0.00 0.00 0.00 0.00 0.00 0.00 0.00 0.00 0.00 0.00 0.00 0.00 0.00 0.00 0.00 0.00 0.03 0.07 0.04 0.01 0.05 0.03 0.03 0.01 0.00 0.03 0.09 0.13 0.10 0.31 0.07 0.01 0.03 0.03 0.04 0.02 0.00 0.00
0.08 0.05 0.03 0.02 0.03 0.01 0.00 0.00 0.00 0.00 0.00 0.00 0.00 0.00 0.00 0.00 0.00 0.00 0.00 0.00 0.00 0.02 0.06 0.04 0.01 0.00 0.08 0.07 0.02 0.00 0.00 0.01 0.04 0.19 0.12 0.12 0.08 0.01 0.02 0.04 0.02 0.01 0.01 0.01
0.14 0.05 0.05 0.02 0.00 0.00 0.00 0.00 0.00 0.00 0.01 0.03 0.00 0.00 0.00 0.00 0.00 0.00 0.00 0.00 0.01 0.03 0.09 0.05 0.01 0.01 0.12 0.09 0.01 0.01 0.02 0.03 0.07 0.16 0.33 0.21 0.03 0.02 0.01 0.01 0.00 0.01 0.01 0.01
0.08 0.04 0.07 0.02 0.02 0.01 0.00 0.00 0.02 0.00 0.00 0.00 0.00 0.00 0.00 0.00 0.01 0.07 0.05 0.06 0.07 0.08 0.05 0.03 0.01 0.03 0.06 0.03 0.00 0.01 0.01 0.07 0.14 0.15 0.14 0.10 0.02 0.00 0.00 0.00 0.00 0.00 0.00 0.00
0.02 0.03 0.02 0.01 0.01 0.00 0.00 0.00 0.02 0.01 0.01 0.01 0.01 0.01 0.02 0.01 0.05 0.11 0.17 0.26 0.19 0.09 0.08 0.02 0.03 0.05 0.03 0.00 0.00 0.01 0.08 0.13 0.08 0.01 0.02 0.01 0.00 0.00 0.00 0.00 0.01 0.01 0.00 0.00
0.00 0.00 0.00 0.00 0.00 0.00 0.00 0.00 0.01 0.02 0.03 0.02 0.01 0.01 0.03 0.06 0.11 0.11 0.11 0.12 0.12 0.17 0.08 0.06 0.08 0.04 0.04 0.04 0.13 0.17 0.12 0.07 0.02 0.01 0.01 0.01 0.00 0.01 0.01 0.01 0.02 0.03 0.03 0.01
0.00 0.00 0.00 0.00 0.00 0.01 0.01 0.01 0.03 0.02 0.04 0.03 0.01 0.02 0.10 0.09 0.15 0.11 0.07 0.10 0.10 0.18 0.34 0.18 0.21 0.30 0.35 0.13 0.05 0.02 0.01 0.00 0.00 0.00 0.01 0.01 0.02 0.02 0.01 0.01 0.01 0.01 0.01 0.01
0.00 0.00 0.00 0.05 0.06 0.03 0.03 0.02 0.02 0.01 0.00 0.00 0.00 0.01 0.10 0.11 0.10 0.09 0.05 0.07 0.07 0.06 0.11 0.16 0.31 0.21 0.04 0.00 0.00 0.00 0.00 0.00 0.00 0.00 0.00 0.00 0.00 0.00 0.00 0.00 0.00 0.00 0.01 0.01
0.01 0.01 0.02 0.01 0.02 0.02 0.01 0.00 0.00 0.00 0.01 0.03 0.11 0.10 0.06 0.20 0.16 0.08 0.08 0.07 0.03 0.03 0.05 0.07 0.16 0.13 0.02 0.01 0.00 0.00 0.00 0.00 0.00 0.00 0.00 0.00 0.00 0.00 0.00 0.00 0.00 0.00 0.00 0.00
0.01 0.02 0.02 0.01 0.01 0.00 0.00 0.00 0.01 0.01 0.01 0.02 0.05 0.04 0.03 0.06 0.11 0.05 0.07 0.04 0.04 0.05 0.04 0.16 0.10 0.02 0.02 0.01 0.01 0.00 0.00 0.01 0.01 0.01 0.00 0.00 0.00 0.00 0.00 0.00 0.00 0.00 0.00 0.00
0.01 0.04 0.02 0.00 0.00 0.00 0.00 0.00 0.02 0.01 0.01 0.02 0.05 0.04 0.05 0.07 0.11 0.09 0.07 0.05 0.04 0.05 0.09 0.10 0.04 0.04 0.05 0.04 0.02 0.01 0.01 0.01 0.01 0.01 0.00 0.00 0.00 0.00 0.00 0.00 0.00 0.00 0.00 0.00
0.01 0.01 0.01 0.00 0.01 0.00 0.00 0.00 0.00 0.01 0.03 0.04 0.05 0.06 0.08 0.06 0.06 0.06 0.05 0.04 0.06 0.12 0.09 0.10 0.11 0.08 0.03 0.01 0.02 0.02 0.02 0.01 0.00 0.00 0.00 0.00 0.00 0.00 0.00 0.00 0.00 0.00 0.00 0.00
0.02 0.00 0.00 0.00 0.00 0.00 0.00 0.00 0.01 0.01 0.05 0.06 0.05 0.05 0.03 0.04 0.10 0.08 0.13 0.26 0.34 0.25 0.19 0.12 0.03 0.01 0.01 0.01 0.01 0.01 0.01 0.00 0.00 0.00 0.00 0.00 0.00 0.00 0.00 0.00 0.00 0.00 0.00 0.00

GFSNW_prec_precacc12_204.txt.gz
Total_Precipitation_Accumulation
0.36 0.43 0.50 0.67 1.06 1.58 1.58 1.44 1.32 0.82 0.30 0.52 0.63 0.21 0.04 0.07 0.09 0.10 0.15 0.16 0.12 0.09 0.04 0.02 0.01 0.02 0.02 0.00 0.00 0.01 0.01 0.04 0.01 0.00 0.00 0.00 0.00 0.01 0.03 0.16 0.11 0.16 0.24 0.14
0.50 0.56 0.66 0.85 1.07 0.98 1.05 1.33 1.20 1.01 0.58 0.50 0.37 0.21 0.19 0.19 0.19 0.13 0.14 0.13 0.10 0.06 0.07 0.09 0.04 0.02 0.00 0.00 0.00 0.00 0.00 0.01 0.01 0.00 0.00 0.00 0.00 0.00 0.00 0.01 0.02 0.05 0.09 0.06
0.80 0.79 0.80 0.95 1.04 1.01 0.86 1.09 1.13 1.10 0.76 0.39 0.20 0.30 0.41 0.30 0.17 0.17 0.14 0.10 0.05 0.03 0.04 0.03 0.04 0.03 0.01 0.00 0.00 0.00 0.01 0.01 0.02 0.02 0.00 0.01 0.00 0.00 0.00 0.00 0.01 0.01 0.01 0.00
0.89 0.92 0.94 0.95 0.90 0.71 0.62 0.82 0.79 0.52 0.59 0.29 0.24 0.32 0.44 0.22 0.17 0.16 0.10 0.11 0.03 0.03 0.05 0.03 0.02 0.01 0.02 0.00 0.00 0.00 0.00 0.00 0.00 0.00 0.00 0.00 0.00 0.00 0.00 0.00 0.00 0.01 0.00 0.00
0.56 0.58 0.56 0.58 0.56 0.59 0.57 0.65 0.50 0.43 0.42 0.31 0.47 0.52 0.34 0.18 0.17 0.15 0.12 0.06 0.02 0.03 0.03 0.00 0.00 0.00 0.01 0.00 0.00 0.00 0.00 0.00 0.00 0.00 0.00 0.00 0.00 0.00 0.00 0.00 0.00 0.02 0.06 0.06
0.38 0.34 0.33 0.33 0.33 0.35 0.39 0.36 0.40 0.49 0.57 0.39 0.36 0.30 0.16 0.16 0.15 0.13 0.07 0.03 0.07 0.02 0.01 0.00 0.00 0.00 0.00 0.00 0.00 0.00 0.00 0.00 0.02 0.02 0.00 0.01 0.00 0.00 0.00 0.02 0.02 0.08 0.13 0.07
0.36 0.33 0.31 0.29 0.27 0.28 0.32 0.38 0.42 0.44 0.40 0.26 0.20 0.15 0.13 0.13 0.10 0.07 0.03 0.01 0.03 0.01 0.00 0.00 0.00 0.00 0.00 0.00 0.00 0.00 0.00 0.00 0.05 0.04 0.02 0.04 0.00 0.01 0.07 0.09 0.02 0.05 0.12 0.06
0.11 0.10 0.10 0.08 0.08 0.09 0.09 0.09 0.10 0.12 0.11 0.06 0.05 0.03 0.03 0.05 0.05 0.03 0.01 0.00 0.00 0.00 0.00 0.00 0.00 0.00 0.00 0.00 0.00 0.00 0.00 0.01 0.07 0.06 0.05 0.02 0.01 0.08 0.14 0.12 0.07 0.17 0.29 0.18
0.07 0.07 0.05 0.03 0.02 0.01 0.00 0.01 0.00 0.00 0.01 0.01 0.00 0.00 0.00 0.00 0.00 0.00 0.00 0.00 0.00 0.00 0.00 0.00 0.00 0.00 0.00 0.00 0.00 0.00 0.01 0.03 0.08 0.06 0.13 0.06 0.01 0.02 0.03 0.04 0.16 0.30 0.55 0.47
0.04 0.02 0.01 0.00 0.00 0.00 0.00 0.00 0.00 0.00 0.00 0.00 0.00 0.00 0.00 0.00 0.00 0.00 0.00 0.00 0.00 0.00 0.00 0.00 0.00 0.00 0.00 0.00 0.00 0.00 0.01 0.05 0.10 0.11 0.15 0.08 0.02 0.03 0.05 0.27 0.43 0.48 0.44 0.45
0.00 0.00 0.00 0.00 0.00 0.00 0.00 0.00 0.00 0.00 0.00 0.00 0.00 0.00 0.00 0.00 0.00 0.00 0.00 0.00 0.00 0.00 0.01 0.01 0.01 0.01 0.00 0.01 0.00 0.00 0.01 0.01 0.02 0.04 0.06 0.04 0.04 0.07 0.26 0.32 0.34 0.26 0.23 0.16
0.00 0.00 0.00 0.00 0.00 0.00 0.00 0.00 0.00 0.00 0.00 0.00 0.00 0.00 0.00 0.00 0.00 0.00 0.00 0.00 0.00 0.00 0.01 0.03 0.05 0.05 0.03 0.02 0.01 0.00 0.01 0.02 0.04 0.06 0.04 0.01 0.04 0.26 0.24 0.46 0.58 0.27 0.17 0.06
0.01 0.00 0.00 0.00 0.00 0.00 0.00 0.00 0.00 0.00 0.00 0.00 0.00 0.00 0.00 0.00 0.00 0.00 0.00 0.00 0.00 0.00 0.00 0.03 0.04 0.04 0.02 0.02 0.02 0.03 0.01 0.00 0.03 0.02 0.00 0.01 0.04 0.06 0.18 0.38 0.30 0.12 0.07 0.05
0.02 0.03 0.02 0.01 0.01 0.01 0.00 0.00 0.00 0.00 0.00 0.00 0.00 0.00 0.00 0.00 0.00 0.00 0.00 0.00 0.00 0.00 0.00 0.02 0.03 0.03 0.03 0.05 0.05 0.05 0.02 0.01 0.02 0.03 0.04 0.05 0.03 0.13 0.15 0.06 0.02 0.04 0.02 0.01
0.02 0.03 0.02 0.02 0.03 0.02 0.00 0.00 0.00 0.00 0.00 0.00 0.00 0.00 0.00 0.00 0.00 0.00 0.00 0.00 0.00 0.00 0.02 0.05 0.04 0.02 0.06 0.04 0.04 0.02 0.00 0.01 0.04 0.08 0.08 0.25 0.06 0.01 0.03 0.06 0.06 0.03 0.01 0.01
0.03 0.03 0.01 0.00 0.01 0.00 0.00 0.00 0.00 0.00 0.00 0.00 0.00 0.00 0.00 0.00 0.00 0.00 0.00 0.00 0.00 0.00 0.03 0.03 0.01 0.01 0.09 0.08 0.02 0.01 0.00 0.00 0.02 0.06 0.04 0.10 0.08 0.01 0.03 0.06 0.02 0.01 0.01 0.01
0.03 0.01 0.01 0.01 0.00 0.00 0.00 0.01 0.00 0.00 0.00 0.01 0.00 0.00 0.00 0.00 0.00 0.00 0.00 0.00 0.00 0.02 0.08 0.05 0.01 0.01 0.11 0.08 0.01 0.00 0.00 0.01 0.02 0.07 0.26 0.21 0.04 0.04 0.02 0.01 0.00 0.01 0.01 0.01
0.02 0.01 0.01 0.01 0.00 0.00 0.00 0.00 0.00 0.00 0.00 0.00 0.00 0.00 0.01 0.00 0.02 0.10 0.06 0.05 0.04 0.06 0.05 0.03 0.01 0.04 0.08 0.04 0.00 0.00 0.00 0.05 0.13 0.12 0.15 0.11 0.03 0.00 0.00 0.00 0.00 0.00 0.00 0.00
0.01 0.02 0.01 0.01 0.00 0.01 0.00 0.00 0.02 0.01 0.01 0.01 0.01 0.02 0.07 0.01 0.05 0.10 0.14 0.22 0.17 0.08 0.07 0.02 0.04 0.06 0.05 0.00 0.00 0.01 0.08 0.13 0.07 0.01 0.03 0.02 0.00 0.00 0.00 0.00 0.01 0.01 0.00 0.00
0.00 0.00 0.00 0.01 0.00 0.00 0.00 0.01 0.01 0.02 0.02 0.01 0.01 0.01 0.04 0.04 0.08 0.08 0.08 0.10 0.10 0.16 0.07 0.06 0.08 0.04 0.02 0.01 0.03 0.09 0.07 0.03 0.01 0.01 0.01 0.01 0.00 0.01 0.00 0.00 0.01 0.03 0.03 0.01
0.00 0.00 0.00 0.00 0.00 0.01 0.01 0.01 0.01 0.01 0.01 0.01 0.00 0.01 0.06 0.06 0.10 0.10 0.07 0.10 0.09 0.10 0.21 0.14 0.15 0.12 0.14 0.06 0.02 0.01 0.00 0.00 0.00 0.00 0.01 0.01 0.01 0.01 0.01 0.00 0.00 0.01 0.01 0.01
0.00 0.00 0.00 0.04 0.05 0.02 0.01 0.01 0.01 0.01 0.00 0.00 0.00 0.02 0.06 0.08 0.07 0.07 0.05 0.06 0.07 0.06 0.09 0.10 0.17 0.18 0.03 0.00 0.00 0.00 0.00 0.00 0.00 0.00 0.00 0.00 0.00 0.01 0.00 0.00 0.00 0.00 0.00 0.01
0.02 0.01 0.01 0.02 0.02 0.02 0.00 0.00 0.00 0.01 0.01 0.02 0.04 0.05 0.05 0.10 0.11 0.07 0.07 0.07 0.04 0.05 0.07 0.07 0.16 0.11 0.02 0.01 0.00 0.00 0.00 0.00 0.00 0.00 0.00 0.00 0.00 0.00 0.00 0.00 0.00 0.00 0.00 0.00
0.00 0.01 0.01 0.01 0.01 0.00 0.00 0.02 0.03 0.03 0.01 0.02 0.02 0.03 0.03 0.06 0.11 0.05 0.07 0.05 0.07 0.07 0.05 0.16 0.25 0.11 0.04 0.01 0.01 0.01 0.01 0.01 0.01 0.01 0.01 0.00 0.00 0.00 0.00 0.00 0.00 0.00 0.00 0.00
0.00 0.03 0.01 0.00 0.00 0.00 0.00 0.00 0.00 0.01 0.01 0.03 0.06 0.06 0.06 0.05 0.09 0.10 0.09 0.08 0.06 0.07 0.14 0.19 0.08 0.06 0.06 0.04 0.03 0.02 0.02 0.01 0.01 0.01 0.01 0.00 0.00 0.00 0.00 0.00 0.00 0.00 0.00 0.00
0.01 0.01 0.01 0.00 0.01 0.00 0.00 0.00 0.00 0.02 0.06 0.07 0.06 0.05 0.07 0.06 0.07 0.07 0.07 0.06 0.09 0.18 0.15 0.14 0.13 0.10 0.04 0.01 0.01 0.01 0.01 0.01 0.01 0.00 0.00 0.00 0.00 0.00 0.00 0.00 0.00 0.00 0.00 0.00
0.02 0.00 0.00 0.00 0.01 0.00 0.00 0.00 0.01 0.03 0.07 0.08 0.07 0.07 0.03 0.04 0.07 0.07 0.12 0.19 0.27 0.18 0.14 0.09 0.04 0.01 0.01 0.01 0.01 0.01 0.01 0.00 0.00 0.00 0.00 0.00 0.00 0.00 0.00 0.00 0.00 0.00 0.00 0.00

GFSNW_prec_precacc12_207.txt.gz
Total_Precipitation_Accumulation
0.29 0.35 0.41 0.56 0.94 1.64 1.94 1.76 1.52 0.90 0.32 0.64 0.75 0.26 0.04 0.07 0.09 0.09 0.13 0.14 0.11 0.11 0.09 0.11 0.06 0.03 0.01 0.00 0.00 0.01 0.01 0.01 0.00 0.00 0.00 0.00 0.00 0.01 0.03 0.16 0.09 0.17 0.26 0.11
0.32 0.34 0.46 0.70 1.06 1.17 1.44 1.73 1.36 1.02 0.61 0.55 0.41 0.22 0.18 0.18 0.18 0.12 0.13 0.15 0.15 0.12 0.15 0.16 0.08 0.03 0.00 0.00 0.00 0.00 0.00 0.00 0.00 0.00 0.00 0.00 0.00 0.00 0.00 0.00 0.01 0.01 0.02 0.01
0.83 0.81 0.79 0.97 1.24 1.43 1.28 1.45 1.27 1.11 0.74 0.39 0.20 0.27 0.36 0.27 0.16 0.19 0.20 0.21 0.17 0.13 0.10 0.07 0.10 0.05 0.01 0.00 0.00 0.00 0.00 0.00 0.00 0.00 0.00 0.00 0.00 0.00 0.00 0.01 0.04 0.01 0.01 0.01
1.02 1.13 1.27 1.46 1.54 1.41 1.24 1.33 1.11 0.65 0.58 0.27 0.22 0.31 0.47 0.28 0.21 0.27 0.27 0.28 0.10 0.06 0.14 0.07 0.06 0.04 0.06 0.01 0.00 0.00 0.00 0.00 0.00 0.00 0.00 0.00 0.00 0.00 0.00 0.00 0.00 0.01 0.01 0.00
0.73 0.70 0.80 0.85 0.91 1.04 1.10 1.03 0.71 0.53 0.47 0.33 0.46 0.59 0.43 0.24 0.25 0.29 0.24 0.15 0.07 0.09 0.09 0.02 0.03 0.03 0.07 0.03 0.00 0.00 0.00 0.00 0.00 0.00 0.00 0.00 0.00 0.00 0.00 0.00 0.00 0.02 0.07 0.07
0.44 0.43 0.47 0.49 0.49 0.56 0.65 0.49 0.45 0.54 0.70 0.49 0.44 0.37 0.20 0.25 0.24 0.24 0.15 0.08 0.15 0.07 0.04 0.03 0.01 0.00 0.00 0.00 0.00 0.01 0.01 0.00 0.01 0.01 0.00 0.00 0.00 0.00 0.00 0.02 0.02 0.08 0.14 0.09
0.49 0.49 0.48 0.44 0.46 0.45 0.37 0.41 0.47 0.50 0.48 0.31 0.23 0.17 0.15 0.18 0.17 0.15 0.08 0.04 0.08 0.04 0.00 0.00 0.00 0.00 0.00 0.00 0.00 0.00 0.00 0.00 0.03 0.02 0.01 0.03 0.00 0.00 0.02 0.06 0.02 0.04 0.11 0.06
0.26 0.21 0.21 0.18 0.17 0.14 0.11 0.11 0.12 0.13 0.13 0.08 0.08 0.07 0.06 0.10 0.14 0.10 0.04 0.01 0.01 0.00 0.00 0.00 0.00 0.00 0.00 0.00 0.00 0.00 0.00 0.00 0.02 0.03 0.04 0.02 0.01 0.03 0.03 0.03 0.03 0.16 0.26 0.15
0.12 0.11 0.08 0.05 0.05 0.03 0.01 0.01 0.00 0.01 0.02 0.03 0.02 0.03 0.03 0.03 0.05 0.03 0.00 0.00 0.00 0.00 0.00 0.00 0.00 0.00 0.00 0.00 0.00 0.00 0.01 0.03 0.07 0.04 0.07 0.04 0.01 0.03 0.03 0.01 0.13 0.23 0.32 0.38
0.06 0.03 0.01 0.01 0.01 0.00 0.00 0.00 0.00 0.00 0.00 0.00 0.00 0.01 0.01 0.00 0.00 0.00 0.00 0.00 0.00 0.00 0.00 0.00 0.00 0.00 0.00 0.00 0.00 0.00 0.01 0.05 0.12 0.14 0.20 0.14 0.05 0.02 0.01 0.11 0.17 0.13 0.26 0.34
0.01 0.00 0.00 0.00 0.00 0.00 0.00 0.00 0.00 0.00 0.00 0.00 0.00 0.00 0.00 0.00 0.00 0.00 0.00 0.00 0.00 0.00 0.00 0.01 0.01 0.01 0.00 0.01 0.01 0.01 0.02 0.02 0.03 0.06 0.11 0.08 0.03 0.02 0.10 0.13 0.08 0.11 0.22 0.16
0.01 0.01 0.01 0.00 0.00 0.00 0.00 0.00 0.00 0.00 0.00 0.00 0.00 0.00 0.00 0.00 0.00 0.00 0.00 0.00 0.00 0.00 0.01 0.04 0.06 0.06 0.04 0.03 0.01 0.00 0.01 0.02 0.04 0.06 0.04 0.01 0.02 0.08 0.10 0.23 0.35 0.24 0.17 0.07
0.00 0.00 0.00 0.00 0.00 0.00 0.00 0.00 0.00 0.00 0.00 0.00 0.00 0.00 0.00 0.00 0.00 0.00 0.00 0.00 0.00 0.00 0.00 0.03 0.05 0.04 0.02 0.02 0.02 0.04 0.01 0.00 0.03 0.03 0.00 0.01 0.02 0.05 0.12 0.25 0.24 0.12 0.07 0.08
0.01 0.01 0.01 0.00 0.00 0.00 0.00 0.00 0.00 0.00 0.00 0.00 0.00 0.00 0.00 0.00 0.00 0.00 0.00 0.00 0.00 0.00 0.00 0.02 0.03 0.03 0.03 0.05 0.06 0.06 0.02 0.01 0.02 0.02 0.01 0.02 0.03 0.13 0.15 0.06 0.02 0.04 0.03 0.02
0.00 0.01 0.01 0.01 0.01 0.00 0.00 0.00 0.00 0.00 0.00 0.00 0.00 0.00 0.00 0.00 0.00 0.00 0.00 0.00 0.00 0.00 0.01 0.03 0.03 0.02 0.06 0.03 0.05 0.02 0.01 0.01 0.02 0.01 0.02 0.13 0.04 0.01 0.03 0.05 0.05 0.04 0.01 0.01
0.00 0.00 0.00 0.00 0.00 0.00 0.00 0.00 0.00 0.00 0.00 0.00 0.00 0.00 0.00 0.00 0.00 0.00 0.00 0.00 0.00 0.00 0.02 0.02 0.01 0.01 0.09 0.07 0.02 0.01 0.00 0.00 0.01 0.01 0.01 0.02 0.03 0.01 0.04 0.06 0.03 0.01 0.01 0.01
0.00 0.00 0.00 0.00 0.00 0.00 0.00 0.01 0.00 0.00 0.00 0.00 0.00 0.00 0.00 0.00 0.00 0.00 0.00 0.00 0.00 0.01 0.04 0.02 0.01 0.01 0.10 0.06 0.01 0.00 0.00 0.00 0.01 0.02 0.11 0.12 0.05 0.06 0.04 0.00 0.00 0.01 0.01 0.01
0.00 0.00 0.00 0.00 0.00 0.00 0.00 0.00 0.00 0.00 0.00 0.00 0.00 0.00 0.01 0.00 0.02 0.10 0.05 0.03 0.02 0.03 0.03 0.02 0.01 0.04 0.08 0.04 0.00 0.00 0.00 0.04 0.11 0.10 0.10 0.10 0.04 0.01 0.00 0.00 0.00 0.00 0.00 0.00
0.00 0.00 0.00 0.00 0.00 0.01 0.00 0.00 0.01 0.01 0.01 0.01 0.00 0.02 0.09 0.01 0.04 0.07 0.11 0.15 0.11 0.05 0.04 0.02 0.04 0.06 0.05 0.00 0.00 0.01 0.04 0.07 0.05 0.01 0.03 0.02 0.00 0.00 0.00 0.00 0.01 0.01 0.00 0.00
0.00 0.00 0.00 0.01 0.00 0.00 0.00 0.01 0.01 0.01 0.01 0.00 0.01 0.00 0.02 0.02 0.06 0.06 0.07 0.06 0.07 0.13 0.04 0.04 0.06 0.02 0.00 0.00 0.01 0.03 0.02 0.01 0.00 0.00 0.01 0.00 0.00 0.00 0.00 0.00 0.00 0.00 0.00 0.00
0.00 0.00 0.00 0.00 0.00 0.01 0.01 0.01 0.00 0.00 0.00 0.00 0.00 0.00 0.03 0.03 0.05 0.08 0.06 0.08 0.07 0.07 0.12 0.07 0.07 0.05 0.04 0.01 0.01 0.00 0.00 0.00 0.00 0.00 0.00 0.00 0.01 0.01 0.01 0.00 0.00 0.00 0.00 0.00
0.00 0.00 0.00 0.02 0.03 0.02 0.01 0.01 0.00 0.00 0.01 0.00 0.01 0.02 0.04 0.05 0.04 0.05 0.04 0.06 0.05 0.05 0.08 0.08 0.07 0.13 0.02 0.00 0.00 0.00 0.00 0.00 0.00 0.00 0.00 0.00 0.00 0.00 0.00 0.00 0.00 0.00 0.00 0.00
0.02 0.01 0.01 0.01 0.02 0.01 0.00 0.00 0.00 0.01 0.01 0.02 0.03 0.03 0.03 0.05 0.06 0.05 0.06 0.06 0.04 0.06 0.09 0.06 0.19 0.19 0.12 0.06 0.03 0.02 0.01 0.00 0.00 0.00 0.00 0.00 0.00 0.00 0.00 0.00 0.00 0.00 0.00 0.00
0.00 0.00 0.00 0.01 0.01 0.00 0.00 0.03 0.04 0.04 0.01 0.02 0.02 0.02 0.03 0.04 0.08 0.04 0.06 0.05 0.08 0.08 0.05 0.16 0.28 0.24 0.12 0.05 0.02 0.02 0.01 0.01 0.01 0.01 0.01 0.00 0.00 0.00 0.00 0.00 0.00 0.00 0.00 0.00
0.00 0.01 0.01 0.00 0.00 0.01 0.01 0.00 0.00 0.01 0.01 0.03 0.06 0.06 0.05 0.04 0.05 0.07 0.09 0.08 0.07 0.09 0.18 0.26 0.16 0.10 0.10 0.06 0.02 0.01 0.01 0.01 0.01 0.01 0.01 0.00 0.00 0.00 0.00 0.00 0.00 0.00 0.00 0.00
0.01 0.01 0.01 0.00 0.01 0.01 0.00 0.00 0.00 0.02 0.07 0.08 0.07 0.05 0.05 0.05 0.06 0.07 0.07 0.07 0.11 0.20 0.16 0.13 0.13 0.11 0.06 0.01 0.00 0.00 0.01 0.01 0.01 0.00 0.00 0.00 0.00 0.00 0.00 0.00 0.00 0.00 0.00 0.00
0.01 0.00 0.00 0.00 0.01 0.01 0.01 0.00 0.01 0.04 0.08 0.09 0.08 0.07 0.03 0.04 0.06 0.06 0.11 0.19 0.25 0.14 0.07 0.06 0.04 0.01 0.01 0.01 0.01 0.01 0.00 0.00 0.00 0.00 0.00 0.00 0.00 0.00 0.00 0.00 0.00 0.01 0.00 0.00